Location: Mainz-Finthen
(49.9906°N, 8.1713°E)
Time: 15:08:53
(UTC+00:00)

Envisat - Pass Details

Date: 03 October 2021
Orbit: 764 x 766 km, 98.2° (Epoch: 18 October)

Event Time Altitude Azimuth Distance (km) Brightness Sun altitude
Rises 03:57:57 0° 21° (NNE) 3,243 6.7 -15.6°
Reaches altitude 10° 04:00:29 10° 30° (NNE) 2,312 6.1 -15.2°
Maximum altitude 04:05:06 34° 95° (E) 1,246 4.8 -14.5°
Drops below altitude 10° 04:09:41 10° 160° (SSE) 2,296 5.6 -13.8°
Sets 04:12:10 0° 170° (S) 3,217 6.2 -13.4°
